Location: Castillon
(43.0896°N, 0.2156°E)
Time: 03:05:58
(UTC+00:00)

Cosmos 1980 Rocket - Pass Details

Date: 20 October 2021
Orbit: 828 x 851 km, 71.0° (Epoch: 07 December)

Event Time Altitude Azimuth Distance (km) Brightness Sun altitude
Exits shadow 04:57:19 13° 227° (SW) 2,253 4.0 -15.6°
Drops below altitude 10° 04:58:15 10° 219° (SW) 2,467 4.3 -15.4°
Sets 05:01:24 0° 201° (SSW) 3,394 5.1 -14.8°
